Location: Asheville, NC
(35.6000°N, 82.5500°W)
Time: 04:29:26
(UTC-05:00)

NUDT-PHONESAT - Pass Details

Date: 11 January 2018
Orbit: 494 x 513 km, 97.4° (Epoch: 18 January)

Event Time Altitude Azimuth Distance (km) Brightness Sun altitude
Rises 06:40:47 0° 14° (NNE) 2,604 ? -12.0°
Reaches altitude 10° 06:42:53 10° 17° (NNE) 1,712 ? -11.5°
Maximum altitude 06:46:34 70° 101° (E) 535 ? -10.8°
Drops below altitude 10° 06:50:11 10° 185° (S) 1,689 ? -10.1°
Sets 06:52:15 0° 188° (S) 2,565 ? -9.8°
